Antwerp, Belgium

11:44 AM CET on January 19, 2018 (GMT +0100)
Deurne

Weather History for EBAW - December, 2012

Change the Weather History Date:

Saturday, December 22, 2012

  Actual Average Record
Temperature  
Mean Temperature 48 °F -  
Max Temperature 55 °F 42 °F 57 °F (2015)
Min Temperature 44 °F 33 °F 17 °F (2007)
Degree Days  
Heating Degree Days 16    
Moisture  
Dew Point 44 °F    
Average Humidity 92    
Maximum Humidity 94    
Minimum Humidity 85    
Precipitation  
Precipitation 0.47 in - - ()
Sea Level Pressure  
Sea Level Pressure 29.84 in    
Wind  
Wind Speed 8 mph ()    
Max Wind Speed 18 mph    
Max Gust Speed -    
Visibility 4.5 miles    
Events Rain    
Averages and records for this station are not official NWS values.
T = Trace of Precipitation, MM = Missing Value Source: Averaged Metar Reports

Daily Weather History Graph

Daily Weather History Graph

Search for Another Location

Airport or City:

Trip Planner

Search our weather history database for the weather conditions in past years. The results will help you decide how hot, cold, wet, or windy it might be!

Date:

Astronomy

Dec. 22, 2012 Rise Set
Actual Time 8:44 AM CET 4:37 PM CET
Civil Twilight 8:04 AM CET 5:17 PM CET
Nautical Twilight 7:21 AM CET 6:00 PM CET
Astronomical Twilight 6:41 AM CET 6:40 PM CET
Moon 1:08 PM CET (12/22) 2:50 AM CET (12/22)
Length of Visible Light 9h 12m
Length of Day
7h 52m
Waxing Gibbous, 71% of the Moon is Illuminated
Dec 22
Waxing Gibbous
Dec 28
Full
Jan 5
Last Quarter
Jan 11
New
Jan 19
First Quarter

Hourly Weather History & Observations

Time (CET) Temp. Windchill Dew Point Humidity Pressure Visibility Wind Dir Wind Speed Gust Speed Precip Events Conditions
12:20 AM 46.4 °F 43.5 °F 42.8 °F 87% 29.98 in 6.2 mi SW 5.8 mph - N/A   Mostly Cloudy
12:50 AM 46.4 °F 42.9 °F 42.8 °F 87% 30.01 in 6.2 mi SW 6.9 mph - N/A   Overcast
1:00 AM 46 °F - 43 °F 85% 30.01 in 7 mi SW 6.7 mph - -   Overcast
1:20 AM 44.6 °F 40.7 °F 42.8 °F 93% 30.01 in - SW 6.9 mph - N/A   Clear
1:50 AM 44.6 °F 40.2 °F 42.8 °F 93% 30.01 in 5.6 mi SW 8.1 mph - N/A   Mostly Cloudy
2:20 AM 44.6 °F 40.2 °F 42.8 °F 93% 30.01 in 5.6 mi SW 8.1 mph - N/A   Overcast
2:50 AM 46.4 °F 42.4 °F 42.8 °F 87% 30.01 in 5.0 mi SW 8.1 mph - N/A   Mostly Cloudy
3:20 AM 44.6 °F 39.7 °F 42.8 °F 93% 30.01 in 5.0 mi SW 9.2 mph - N/A   Overcast
3:50 AM 46.4 °F 42.4 °F 42.8 °F 87% 30.01 in 4.3 mi SW 8.1 mph - N/A   Overcast
4:00 AM 46 °F - 43 °F 87% 30.03 in - SW 8.9 mph - -   Overcast
4:20 AM 46.4 °F 41.9 °F 42.8 °F 87% 30.01 in 4.3 mi SSW 9.2 mph - N/A   Overcast
4:50 AM 46.4 °F 42.4 °F 42.8 °F 87% 30.01 in 4.3 mi SSW 8.1 mph - N/A   Overcast
5:20 AM 46.4 °F 42.9 °F 42.8 °F 87% 30.01 in 5.0 mi SSW 6.9 mph - N/A   Overcast
5:50 AM 44.6 °F 40.2 °F 42.8 °F 93% 29.98 in 6.2 mi SSW 8.1 mph - N/A   Overcast
6:20 AM 44.6 °F 40.2 °F 42.8 °F 93% 29.98 in 6.2 mi SSW 8.1 mph - N/A   Overcast
6:50 AM 44.6 °F 40.2 °F 42.8 °F 93% 29.98 in 5.6 mi SSW 8.1 mph - N/A   Mostly Cloudy
7:00 AM 45 °F - 43 °F 88% 30.00 in 6 mi SSW 6.7 mph - -   Mostly Cloudy
7:20 AM 44.6 °F 40.2 °F 42.8 °F 93% 29.98 in 4.3 mi South 8.1 mph - N/A   Mostly Cloudy
7:50 AM 44.6 °F 39.7 °F 42.8 °F 93% 29.98 in 4.3 mi SSW 9.2 mph - N/A   Mostly Cloudy
8:20 AM 44.6 °F 40.2 °F 42.8 °F 93% 29.98 in 3.7 mi South 8.1 mph - N/A   Mostly Cloudy
8:50 AM 44.6 °F 40.2 °F 42.8 °F 93% 29.95 in 3.7 mi South 8.1 mph - N/A   Mostly Cloudy
9:20 AM 44.6 °F 41.4 °F 42.8 °F 93% 29.95 in 3.7 mi SSE 5.8 mph - N/A   Mostly Cloudy
9:50 AM 44.6 °F 40.7 °F 42.8 °F 93% 29.95 in 4.3 mi South 6.9 mph - N/A   Mostly Cloudy
10:00 AM 45 °F - 42 °F 87% 29.96 in 4 mi South 6.7 mph - -   Mostly Cloudy
10:20 AM 44.6 °F 41.4 °F 42.8 °F 93% 29.95 in 5.0 mi South 5.8 mph - N/A   Mostly Cloudy
10:50 AM 46.4 °F 42.4 °F 42.8 °F 87% 29.95 in 3.7 mi South 8.1 mph - N/A Rain Light Rain
11:20 AM 46.4 °F 41.9 °F 44.6 °F 93% 29.95 in 3.7 mi South 9.2 mph - N/A Rain Light Rain
11:50 AM 44.6 °F 40.2 °F 42.8 °F 93% 29.92 in 3.7 mi South 8.1 mph - N/A Rain Light Rain
12:20 PM 44.6 °F 39.2 °F 42.8 °F 93% 29.89 in 3.7 mi SSE 10.4 mph - N/A Rain Light Rain
12:50 PM 44.6 °F 38.8 °F 42.8 °F 93% 29.86 in 3.7 mi SSE 11.5 mph - N/A Rain Rain
1:00 PM 45 °F - 43 °F 90% 29.88 in 4 mi SSE 11.2 mph - - Rain Light Rain
1:20 PM 44.6 °F 38.8 °F 42.8 °F 93% 29.83 in 3.7 mi SSE 11.5 mph - N/A Rain Rain
1:50 PM 44.6 °F 38.4 °F 42.8 °F 93% 29.80 in 4.3 mi SSE 12.7 mph - N/A Rain Rain
2:20 PM 44.6 °F 38.1 °F 42.8 °F 93% 29.80 in 5.0 mi SSE 13.8 mph - N/A Rain Light Rain
2:50 PM 44.6 °F 38.4 °F 42.8 °F 93% 29.77 in 4.3 mi SSE 12.7 mph - N/A Rain Light Rain
3:20 PM 44.6 °F 38.4 °F 42.8 °F 93% 29.74 in 4.3 mi SSE 12.7 mph - N/A Rain Light Rain
3:50 PM 44.6 °F 38.8 °F 42.8 °F 93% 29.74 in 4.3 mi SSE 11.5 mph - N/A Rain Light Rain
4:00 PM 44 °F - 42 °F 92% 29.74 in 4 mi SSE 11.2 mph - - Rain Light Rain
4:20 PM 44.6 °F 39.2 °F 42.8 °F 93% 29.71 in 4.3 mi SE 10.4 mph - N/A   Light Drizzle
4:50 PM 44.6 °F 39.2 °F 42.8 °F 93% 29.71 in 3.7 mi SSE 10.4 mph - N/A   Drizzle
5:20 PM 44.6 °F 39.7 °F 42.8 °F 93% 29.68 in 4.3 mi SSE 9.2 mph - N/A Rain Rain
5:50 PM 44.6 °F 39.7 °F 42.8 °F 93% 29.68 in 4.3 mi SSE 9.2 mph - N/A Rain Rain
6:20 PM 44.6 °F 39.7 °F 42.8 °F 93% 29.65 in - South 9.2 mph - N/A Rain Light Rain
6:50 PM 44.6 °F 39.7 °F 42.8 °F 93% 29.65 in - South 9.2 mph - N/A Rain Light Rain
7:00 PM 45 °F - 44 °F 93% 29.66 in 3 mi South 8.9 mph - - Rain Light Rain
7:20 PM 46.4 °F 41.5 °F 44.6 °F 93% 29.62 in - South 10.4 mph - N/A Rain Light Rain
7:50 PM 48.2 °F - 46.4 °F 93% 29.62 in - South 6.9 mph - N/A Rain Light Rain
8:20 PM 48.2 °F - 46.4 °F 93% 29.62 in - SSW 9.2 mph - N/A Rain Light Rain
8:50 PM 50.0 °F - 48.2 °F 94% 29.62 in 3.1 mi SW 8.1 mph - N/A Rain Light Rain
9:20 PM 50.0 °F - 48.2 °F 94% 29.62 in 3.1 mi SW 11.5 mph - N/A Rain Light Rain
9:50 PM 51.8 °F - 50.0 °F 94% 29.62 in 2.8 mi SW 9.2 mph - N/A Rain Rain
10:00 PM 51 °F - 50 °F 93% 29.64 in 3 mi SW 8.9 mph - - Rain Rain
10:20 PM 51.8 °F - 50.0 °F 94% 29.62 in 2.8 mi SW 8.1 mph - N/A Rain Light Rain
10:50 PM 53.6 °F - 51.8 °F 94% 29.62 in 6.2 mi WSW 11.5 mph - N/A Rain Light Rain
11:20 PM 53.6 °F - 51.8 °F 94% 29.62 in 6.2 mi WSW 16.1 mph - N/A Rain Light Rain
11:50 PM 55.4 °F - 51.8 °F 88% 29.62 in 6.2 mi WSW 18.4 mph - N/A Rain Light Rain